Date String (YYYY-MM-DD hh:mm:ss) UTC,Instrument flags,absolute air pressure of the measurement (hPa),sample flow rate (lpm),inlet stack bypass flow (lpm),air temperature of the measurement (°C),ambient temperature measured by the external sensor (°C),aerosol sample conditioner tube jacket temperature (°C),OPC LED temperature (°C),internal box temperature (°C),relative humidity of the measurement (%),span deviation,mass concentration of particles derived from Lorenz-Mie calculation of OPC scattering (μg/m³),mass concentration of particles derived from Lorenz-Mie calculation of OPC scattering (μg/m³),mass concentration of particles derived from Lorenz-Mie calculation of OPC scattering (μg/m³)
DateTimeUTC,F1_M11,P_M11,Q1_M11,Q2_M11,T1_M11,T2_M11,T3_M11,T4_M11,T5_M11,U1_M11,ZSPAN_M11,X0_M11,X2_M11,X1_M11
2024-05-19 23:00:00,SystemResetWarning,0822.6,5.00,000.00,023.4,022.1,000.0,031.8,025.0,021.8,0000.0,0008.44,0003.45,0002.68
2024-05-19 23:01:00,SystemResetWarning,0822.8,5.00,000.00,023.5,022.5,000.0,031.7,025.2,022.4,0000.0,0008.99,0003.45,0002.68
2024-05-19 23:02:00,SystemResetWarning,0822.7,5.00,000.00,023.6,022.8,000.0,031.7,025.4,022.5,0000.0,0009.30,0003.48,0002.68
2024-05-19 23:03:00,SystemResetWarning,0822.6,5.00,000.00,023.7,023.1,000.0,031.8,025.5,022.3,0000.0,0009.39,0003.51,0002.73
2024-05-19 23:04:00,SystemResetWarning,0822.7,4.98,000.00,023.8,023.4,000.0,031.8,025.7,021.2,0000.0,0009.24,0003.54,0002.75
2024-05-19 23:05:00,SystemResetWarning,0822.8,5.00,000.00,023.9,023.6,000.0,031.8,025.7,021.5,0000.0,0008.71,0003.58,0002.76
2024-05-19 23:06:00,SystemResetWarning,0822.7,5.00,000.00,023.8,022.4,000.0,031.9,025.0,021.7,0000.0,0008.27,0003.62,0002.77
2024-05-19 23:07:00,SystemResetWarning,0822.7,5.01,000.00,023.4,020.9,000.0,032.0,024.2,021.6,0000.0,0008.36,0003.65,0002.79
2024-05-19 23:08:00,SystemResetWarning,0822.7,5.01,000.00,023.3,021.2,000.0,031.9,024.4,021.8,0000.0,0008.17,0003.62,0002.80
2024-05-19 23:09:00,SystemResetWarning,0822.7,4.98,000.00,023.3,021.6,000.0,031.8,024.7,022.6,0000.0,0008.58,0003.60,0002.81
2024-05-19 23:10:00,SystemResetWarning,0822.7,5.00,000.00,023.4,022.0,000.0,031.8,025.0,022.6,0000.0,0009.37,0003.61,0002.83
2024-05-19 23:11:00,SystemResetWarning,0822.8,5.02,000.00,023.5,022.4,000.0,031.7,025.1,021.9,0000.0,0009.66,0003.61,0002.85
2024-05-19 23:12:00,SystemResetWarning,0822.9,5.00,000.00,023.6,022.8,000.0,031.7,025.3,021.5,0000.0,0009.25,0003.64,0002.86
2024-05-19 23:13:00,SystemResetWarning,0822.9,5.00,000.00,023.6,023.1,000.0,031.8,025.5,020.8,0000.0,0010.25,0003.68,0002.88
2024-05-19 23:14:00,SystemResetWarning,0823.2,5.00,000.00,023.7,023.4,000.0,031.8,025.6,020.6,0000.0,0010.69,0003.65,0002.86
2024-05-19 23:15:00,SystemResetWarning,0822.9,4.99,000.00,023.8,023.2,000.0,031.8,025.5,020.6,0000.0,0010.93,0003.61,0002.85
2024-05-19 23:16:00,SystemResetWarning,0822.9,4.99,000.00,023.6,021.4,000.0,031.9,024.6,021.7,0000.0,0010.87,0003.58,0002.85
2024-05-19 23:17:00,SystemResetWarning,0822.8,5.03,000.00,023.3,020.7,000.0,031.9,024.2,022.1,0000.0,0011.22,0003.58,0002.86
2024-05-19 23:18:00,SystemResetWarning,0822.8,4.99,000.00,023.2,021.3,000.0,031.9,024.5,022.0,0000.0,0011.36,0003.58,0002.86
2024-05-19 23:19:00,SystemResetWarning,0822.9,4.99,000.00,023.3,021.7,000.0,031.8,024.8,021.6,0000.0,0012.48,0003.62,0002.86
2024-05-19 23:20:00,SystemResetWarning,0822.8,5.01,000.00,023.4,022.1,000.0,031.7,025.0,021.1,0000.0,0012.26,0003.63,0002.86
2024-05-19 23:21:00,SystemResetWarning,0823.0,5.00,000.00,023.4,022.5,000.0,031.7,025.1,021.0,0000.0,0012.23,0003.61,0002.85
2024-05-19 23:22:00,SystemResetWarning,0822.9,5.00,000.00,023.5,022.8,000.0,031.7,025.3,021.3,0000.0,0012.44,0003.60,0002.86
2024-05-19 23:23:00,SystemResetWarning,0823.0,5.00,000.00,023.6,023.1,000.0,031.7,025.5,021.7,0000.0,0012.74,0003.61,0002.86
2024-05-19 23:24:00,SystemResetWarning,0823.0,5.00,000.00,023.7,023.3,000.0,031.7,025.6,021.3,0000.0,0012.45,0003.60,0002.86
2024-05-19 23:25:00,SystemResetWarning,0823.0,4.99,000.00,023.8,023.3,000.0,031.8,025.6,020.8,0000.0,0011.92,0003.61,0002.86
2024-05-19 23:26:00,SystemResetWarning,0823.1,4.99,000.00,023.6,021.7,000.0,031.9,024.7,021.5,0000.0,0011.63,0003.63,0002.88
2024-05-19 23:27:00,SystemResetWarning,0823.0,5.02,000.00,023.3,020.6,000.0,031.9,024.2,022.0,0000.0,0011.66,0003.66,0002.91
2024-05-19 23:28:00,SystemResetWarning,0823.0,4.99,000.00,023.2,021.1,000.0,031.8,024.4,022.1,0000.0,0011.44,0003.65,0002.91
2024-05-19 23:29:00,SystemResetWarning,0823.1,5.00,000.00,023.2,021.5,000.0,031.7,024.6,022.1,0000.0,0011.15,0003.62,0002.90
2024-05-19 23:30:00,SystemResetWarning,0823.1,4.99,000.00,023.3,021.9,000.0,031.7,024.9,022.8,0000.0,0010.52,0003.62,0002.90
2024-05-19 23:31:00,SystemResetWarning,0823.1,5.00,000.00,023.4,022.3,000.0,031.6,025.1,023.0,0000.0,0009.74,0003.57,0002.88
2024-05-19 23:32:00,SystemResetWarning,0823.3,5.00,000.00,023.5,022.6,000.0,031.6,025.2,022.6,0000.0,0009.78,0003.57,0002.88
2024-05-19 23:33:00,SystemResetWarning,0823.3,5.00,000.00,023.5,022.9,000.0,031.7,025.4,022.8,0000.0,0009.28,0003.61,0002.89
2024-05-19 23:34:00,SystemResetWarning,0823.4,5.00,000.00,023.7,023.2,000.0,031.7,025.5,022.9,0000.0,0009.36,0003.61,0002.87
2024-05-19 23:35:00,SystemResetWarning,0823.4,5.00,000.00,023.7,023.4,000.0,031.7,025.7,022.7,0000.0,0009.03,0003.58,0002.87
2024-05-19 23:36:00,SystemResetWarning,0823.4,4.99,000.00,023.8,023.5,000.0,031.8,025.7,022.4,0000.0,0008.35,0003.53,0002.86
2024-05-19 23:37:00,SystemResetWarning,0823.4,5.00,000.00,023.7,022.1,000.0,031.9,024.9,022.7,0000.0,0008.17,0003.54,0002.86
2024-05-19 23:38:00,SystemResetWarning,0823.4,5.00,000.00,023.3,020.6,000.0,031.9,024.2,023.1,0000.0,0008.29,0003.57,0002.85
2024-05-19 23:39:00,SystemResetWarning,0823.4,5.01,000.00,023.2,020.9,000.0,031.9,024.3,023.4,0000.0,0008.20,0003.56,0002.85
2024-05-19 23:40:00,SystemResetWarning,0823.5,5.01,000.00,023.2,021.4,000.0,031.7,024.6,023.3,0000.0,0008.22,0003.59,0002.85
2024-05-19 23:41:00,SystemResetWarning,0823.5,5.00,000.00,023.3,021.8,000.0,031.7,024.8,023.4,0000.0,0008.37,0003.64,0002.85
2024-05-19 23:42:00,SystemResetWarning,0823.5,5.00,000.00,023.3,022.2,000.0,031.7,025.0,023.3,0000.0,0009.39,0003.67,0002.86
2024-05-19 23:43:00,SystemResetWarning,0823.7,4.99,000.00,023.4,022.5,000.0,031.6,025.2,023.2,0000.0,0009.58,0003.67,0002.86
2024-05-19 23:44:00,SystemResetWarning,0823.6,4.99,000.00,023.5,022.8,000.0,031.7,025.4,023.7,0000.0,0009.45,0003.67,0002.86
2024-05-19 23:45:00,SystemResetWarning,0823.6,5.00,000.00,023.6,023.1,000.0,031.7,025.5,023.6,0000.0,0009.09,0003.70,0002.88
2024-05-19 23:46:00,SystemResetWarning,0823.8,5.00,000.00,023.7,023.4,000.0,031.7,025.6,023.9,0000.0,0009.32,0003.71,0002.86
2024-05-19 23:47:00,SystemResetWarning,0823.6,5.00,000.00,023.8,023.6,000.0,031.8,025.8,023.7,0000.0,0009.56,0003.75,0002.86
2024-05-19 23:48:00,SystemResetWarning,0823.6,5.00,000.00,023.9,023.4,000.0,031.8,025.6,023.6,0000.0,0009.70,0003.72,0002.84
2024-05-19 23:49:00,SystemResetWarning,0823.6,5.00,000.00,023.6,021.4,000.0,031.9,024.6,024.0,0000.0,0009.54,0003.65,0002.81
2024-05-19 23:50:00,SystemResetWarning,0823.5,5.01,000.00,023.3,020.5,000.0,031.9,024.1,024.8,0000.0,0009.61,0003.65,0002.77
2024-05-19 23:51:00,SystemResetWarning,0823.6,5.01,000.00,023.2,021.0,000.0,031.9,024.3,024.6,0000.0,0009.60,0003.62,0002.74
2024-05-19 23:52:00,SystemResetWarning,0823.6,4.99,000.00,023.2,021.4,000.0,031.7,024.6,024.6,0000.0,0009.54,0003.58,0002.70
2024-05-19 23:53:00,SystemResetWarning,0823.7,5.00,000.00,023.3,021.9,000.0,031.7,024.9,024.7,0000.0,0008.65,0003.53,0002.64
2024-05-19 23:54:00,SystemResetWarning,0823.8,5.00,000.00,023.4,022.3,000.0,031.7,025.1,024.9,0000.0,0008.15,0003.51,0002.60
2024-05-19 23:55:00,SystemResetWarning,0823.7,5.00,000.00,023.4,022.6,000.0,031.7,025.2,024.7,0000.0,0008.29,0003.48,0002.55
2024-05-19 23:56:00,SystemResetWarning,0823.8,5.00,000.00,023.5,022.9,000.0,031.7,025.4,024.5,0000.0,0008.54,0003.43,0002.50
2024-05-19 23:57:00,SystemResetWarning,0823.8,4.99,000.00,023.6,023.2,000.0,031.7,025.5,024.5,0000.0,0008.41,0003.38,0002.47
2024-05-19 23:58:00,SystemResetWarning,0823.8,5.00,000.00,023.7,023.4,000.0,031.7,025.6,024.5,0000.0,0008.37,0003.32,0002.45
2024-05-19 23:59:00,SystemResetWarning,0823.8,4.99,000.00,023.8,023.6,000.0,031.8,025.8,024.7,0000.0,0008.51,0003.31,0002.42
